Weather History for KSQL - December, 2012

Change the Weather History Date:

Saturday, December 8, 2012

  Actual Average Record
Temperature  
Mean Temperature 49 °F -  
Max Temperature 57 °F 60 °F 78 °F (2002)
Min Temperature 41 °F 40 °F 25 °F (1978)
Degree Days  
Heating Degree Days 16    
Moisture  
Dew Point 42 °F    
Average Humidity 84    
Maximum Humidity 100    
Minimum Humidity 51    
Precipitation  
Precipitation 0.00 in - - ()
Sea Level Pressure  
Sea Level Pressure 30.08 in    
Wind  
Wind Speed 1 mph (WNW)    
Max Wind Speed 5 mph    
Max Gust Speed -    
Visibility 9 miles    
Events Fog    
Averages and records for this station are not official NWS values.
T = Trace of Precipitation, MM = Missing Value Source: NWS Daily Summary

Daily Weather History Graph

Daily Weather History Graph

Search for Another Location

Airport or City:

Trip Planner

Search our weather history database for the weather conditions in past years. The results will help you decide how hot, cold, wet, or windy it might be!

Date:

Astronomy

Dec. 08, 2012 Rise Set
Actual Time 7:11 AM PST 4:50 PM PST
Civil Twilight 6:42 AM PST 5:19 PM PST
Nautical Twilight 6:09 AM PST 5:52 PM PST
Astronomical Twilight 5:38 AM PST 6:24 PM PST
Moon 1:47 AM PST (12/8) 1:19 PM PST (12/8)
Length of Visible Light 10h 37m
Length of Day
9h 39m
Waning Crescent, 27% of the Moon is Illuminated
Dec 8
Waning Crescent
Dec 13
New
Dec 19
First Quarter
Dec 28
Full
Jan 4
Last Quarter

Hourly Weather History & Observations

Time (PST) Temp. Windchill Dew Point Humidity Pressure Visibility Wind Dir Wind Speed Gust Speed Precip Events Conditions
12:10 AM 46.4 °F 45.2 °F 42.8 °F 87% 30.10 in 10.0 mi WSW 3.5 mph - N/A   Clear
12:30 AM 44.6 °F - 41.0 °F 87% 30.10 in 10.0 mi Calm Calm - N/A   Clear
12:55 AM 44.6 °F - 41.0 °F 87% 30.09 in 10.0 mi Calm Calm - N/A   Clear
1:10 AM 44.6 °F - 41.0 °F 87% 30.08 in 10.0 mi Calm Calm - N/A   Clear
1:30 AM 44.6 °F - 41.0 °F 87% 30.08 in 10.0 mi Calm Calm - N/A   Clear
1:55 AM 44.6 °F - 41.0 °F 87% 30.08 in 10.0 mi Calm Calm - N/A   Clear
2:10 AM 42.8 °F 41.1 °F 41.0 °F 93% 30.08 in 10.0 mi SSE 3.5 mph - N/A   Clear
2:30 AM 44.6 °F - 41.0 °F 87% 30.09 in 10.0 mi Calm Calm - N/A   Clear
3:10 AM 42.8 °F - 41.0 °F 93% 30.08 in 10.0 mi Calm Calm - N/A   Clear
3:35 AM 44.6 °F - 41.0 °F 87% 30.07 in 10.0 mi Calm Calm - N/A   Clear
3:50 AM 44.6 °F - 41.0 °F 87% 30.07 in 10.0 mi Calm Calm - N/A   Clear
4:10 AM 42.8 °F - 41.0 °F 93% 30.07 in 10.0 mi Calm Calm - N/A   Clear
4:35 AM 42.8 °F - 41.0 °F 93% 30.07 in 10.0 mi Calm Calm - N/A   Mostly Cloudy
4:50 AM 41.0 °F 39.0 °F 41.0 °F 100% 30.07 in 10.0 mi SSE 3.5 mph - N/A   Mostly Cloudy
5:10 AM 41.0 °F - 41.0 °F 100% 30.07 in 10.0 mi Calm Calm - N/A   Scattered Clouds
5:35 AM 41.0 °F - 41.0 °F 100% 30.06 in 10.0 mi Calm Calm - N/A   Partly Cloudy
5:50 AM 41.0 °F - 41.0 °F 100% 30.07 in 10.0 mi Calm Calm - N/A   Clear
6:10 AM 42.8 °F - 41.0 °F 93% 30.07 in 10.0 mi Calm Calm - N/A   Mostly Cloudy
6:35 AM 41.0 °F - 41.0 °F 100% 30.07 in 10.0 mi Calm Calm - N/A   Overcast
6:50 AM 41.0 °F - 41.0 °F 100% 30.07 in 10.0 mi Calm Calm - N/A   Overcast
6:55 AM 42.8 °F - 41.0 °F 93% 30.08 in 10.0 mi Calm Calm - N/A   Mostly Cloudy
7:27 AM 44.6 °F - 42.8 °F 93% 30.08 in 0.5 mi Calm Calm - N/A Fog Fog
7:50 AM 46.4 °F - 44.6 °F 93% 30.08 in 0.2 mi Calm Calm - N/A Fog Fog
8:30 AM 44.6 °F - 44.6 °F 100% 30.09 in 0.2 mi Calm Calm - N/A Fog Fog
8:47 AM 46.4 °F - 46.4 °F 100% 30.10 in 0.2 mi Calm Calm - N/A Fog Fog
9:30 AM 48.2 °F - 48.2 °F 100% 30.11 in 0.8 mi Calm Calm - N/A   Mostly Cloudy
9:47 AM 48.2 °F - 48.2 °F 100% 30.12 in 5.0 mi Calm Calm - N/A   Scattered Clouds
10:52 AM 53.6 °F - 46.4 °F 77% 30.12 in 7.0 mi Calm Calm - N/A   Mostly Cloudy
11:48 AM 57.2 °F - 44.6 °F 63% 30.10 in 7.0 mi Calm Calm - N/A   Mostly Cloudy
12:47 PM 55.4 °F - 44.6 °F 67% 30.08 in 15.0 mi North 4.6 mph - N/A   Mostly Cloudy
1:52 PM 57.2 °F - 46.4 °F 67% 30.06 in 10.0 mi Variable 3.5 mph - N/A   Mostly Cloudy
2:51 PM 57.2 °F - 44.6 °F 63% 30.05 in 10.0 mi NNE 4.6 mph - N/A   Mostly Cloudy
3:50 PM 57.2 °F - 46.4 °F 67% 30.05 in 10.0 mi NNW 3.5 mph - N/A   Mostly Cloudy
4:49 PM 57.2 °F - 39.2 °F 51% 30.05 in 10.0 mi Calm Calm - N/A   Mostly Cloudy
5:47 PM 55.4 °F - 42.8 °F 63% 30.06 in 10.0 mi West 3.5 mph - N/A   Mostly Cloudy
6:47 PM 53.6 °F - 41.0 °F 62% 30.07 in 10.0 mi Calm Calm - N/A   Clear
7:47 PM 50.0 °F - 42.8 °F 76% 30.07 in 10.0 mi Calm Calm - N/A   Clear
8:47 PM 48.2 °F - 41.0 °F 76% 30.08 in 10.0 mi Calm Calm - N/A   Clear
9:10 PM 48.2 °F - 41.0 °F 76% 30.08 in 10.0 mi NW 4.6 mph - N/A   Clear
9:35 PM 48.2 °F - 41.0 °F 76% 30.08 in 10.0 mi Calm Calm - N/A   Clear
9:50 PM 48.2 °F - 41.0 °F 76% 30.08 in 10.0 mi Calm Calm - N/A   Clear
10:10 PM 48.2 °F - 41.0 °F 76% 30.09 in 10.0 mi Calm Calm - N/A   Clear
10:30 PM 48.2 °F - 41.0 °F 76% 30.09 in 10.0 mi Calm Calm - N/A   Clear
10:50 PM 48.2 °F - 41.0 °F 76% 30.09 in 10.0 mi Calm Calm - N/A   Clear
11:10 PM 46.4 °F - 41.0 °F 81% 30.10 in 10.0 mi Calm Calm - N/A   Clear
11:35 PM 48.2 °F - 41.0 °F 76% 30.10 in 10.0 mi Calm Calm - N/A   Clear
11:50 PM 48.2 °F - 41.0 °F 76% 30.11 in 10.0 mi Calm Calm - N/A   Clear